Vertical_Velocity
-5 -4 -3 -1 -0 -2 -7 -4 -4 -3 -4 -1 -2 -3 -5 -7 -2 -3 -1 -1 0 -1
-3 -1 -4 -4 -3 -1 -1 -5 -4 -4 -6 -4 -2 -1 -1 -3 -2 -5 -1 -2 -3 -4
-6 -4 -5 -5 3 1 1 -2 -4 -2 -2 -4 -3 -2 -1 -2 1 -6 1 -2 -5 -2
-2 -2 -5 -4 -3 -8 0 -4 -2 -5 -1 -4 -4 -1 -5 0 1 -4 -3 4 -3 -0
-5 -0 1 -4 -5 0 -4 3 -7 -5 -3 -1 -2 0 -3 -3 1 -3 -1 4 -6 1
-1 -4 -3 -3 -4 -4 -2 -3 2 -5 -3 -4 -1 -2 1 -3 -1 -0 0 2 -1 4
-1 -4 -4 -3 -1 -2 -1 -7 -2 1 -2 -2 -2 -2 -1 -2 -3 -2 -1 -1 -1 0
-8 -5 -4 -5 -1 -3 -4 -2 -2 -3 3 -2 -3 -2 -6 -4 -4 -5 -2 2 3 1
2 1 -3 1 -1 1 -4 -1 -1 0 -1 -0 -2 -0 -2 -3 -2 1 -0 -0 -2 -7
-6 -0 -2 -7 -0 1 -1 -2 -2 1 -0 -2 -1 -1 -1 -0 -1 -2 -1 -2 -2 -1
-10 -2 1 -5 -2 2 -1 -4 -5 1 1 0 -2 0 -1 -0 -2 -2 -2 -0 0 -1
4 -10 -1 -4 -3 -0 -3 -3 -2 3 -1 -1 2 -0 -2 2 0 -1 1 2 -1 -2
-3 -7 -4 -5 -2 -4 -1 -2 -2 -2 4 3 -4 3 1 3 1 -3 -1 -0 -2 2
0 -3 -5 -6 -2 -1 -4 -2 0 3 3 -5 -1 -2 3 2 0 2 -3 -3 -3 -1
Height
3052 3044 3038 3032 3027 3020 3014 3008 3002 2997 2993 2990 2985 2981 2977 2972 2969 2965 2962 2959 2957 2952
3041 3034 3029 3023 3017 3009 3003 2997 2991 2985 2979 2976 2972 2967 2961 2956 2953 2949 2946 2944 2941 2938
3030 3024 3018 3012 3006 2999 2994 2987 2982 2976 2968 2962 2957 2952 2946 2941 2938 2933 2931 2927 2925 2923
3021 3014 3009 3003 2996 2990 2983 2976 2970 2963 2956 2949 2943 2937 2931 2926 2921 2917 2914 2911 2908 2907
3011 3005 2999 2993 2989 2981 2974 2967 2958 2951 2944 2936 2929 2923 2916 2911 2907 2901 2898 2896 2892 2891
3002 2996 2990 2985 2977 2971 2962 2955 2947 2938 2930 2922 2915 2908 2903 2896 2890 2885 2881 2878 2875 2874
2991 2984 2979 2971 2965 2957 2951 2942 2935 2926 2918 2910 2902 2895 2887 2880 2874 2868 2863 2860 2857 2855
2980 2974 2966 2960 2953 2946 2939 2931 2923 2915 2906 2898 2890 2882 2872 2863 2855 2848 2844 2841 2838 2836
2973 2966 2961 2954 2945 2935 2927 2920 2912 2904 2895 2886 2878 2869 2860 2851 2842 2835 2829 2823 2820 2818
2962 2954 2947 2944 2937 2926 2916 2909 2902 2893 2885 2875 2867 2856 2846 2838 2830 2823 2817 2812 2808 2805
2953 2949 2940 2934 2927 2917 2907 2899 2891 2883 2875 2864 2856 2844 2836 2828 2820 2812 2806 2802 2798 2794
2945 2939 2934 2925 2917 2909 2898 2891 2884 2876 2865 2855 2847 2836 2827 2819 2810 2802 2797 2793 2788 2783
2939 2930 2924 2918 2909 2900 2891 2883 2874 2866 2859 2849 2837 2828 2820 2811 2802 2793 2787 2784 2778 2775
2933 2924 2918 2911 2903 2893 2883 2876 2867 2860 2852 2841 2831 2821 2811 2803 2795 2786 2777 2771 2766 2761